Weather Roundup
Issued by NWS

Home | Current Version | Previous Version | Graphics & Text | Print | Product List | Glossary Off
Versions: 1 2 3 4 5 6 7 8 9 10 11 12 13 14 15 16 17 18 19 20 21 22 23 24 25 26 27 28 29 30 31 32 33 34 35 36 37 38 39 40 41 42 43 44 45 46 47 48 49 50

000
NZUS93 KARX 281610
HRRWXR

CURRENT HOURLY OBSERVATIONS ACROSS
MUCH OF THE UPPER MISSISSIPPI VALLEY
NATIONAL WEATHER SERVICE LA CROSSE WI
1000 AM CST WED JAN 28 2015


...SOUTHEAST MINNESOTA...


CITY           SKY/WX    TMP DP  RH WIND       PRES   REMARKS
ROCHESTER      FOG       25  23  92 S18G28    29.99S VSB 1/2 WCI  11
ROCHESTER/MAYO CLOUDY    25  24  96 SE16G28   30.00F WCI  12
WINONA         CLOUDY    30  27  86 S8        30.07F FOG     WCI  23
AUSTIN         FOG       27  25  93 SE15G21   29.96F VSB 1/4 WCI  15
ALBERT LEA     FOG       28  28 100 SE16      29.93F VSB 1   WCI  17
DODGE CENTER   FOG       27  27 100 S20       29.97S VSB 3/4 WCI  13
PRESTON        FOG       24  23  96 SE13      30.01F VSB 1/2 WCI  12
OWATONNA       CLOUDY    27  25  93 SE20G28   29.93F WCI  13
FARIBAULT      CLOUDY    28  27  93 SE16      29.95F FOG     WCI  17
$$

...ELSEWHERE IN MINNESOTA...


CITY           SKY/WX    TMP DP  RH WIND       PRES   REMARKS
MINNEAPOLIS    CLOUDY    28  24  85 SE13G22   29.97F WCI  17
INTNL FALLS    CLOUDY    27  24  89 SE8       29.88F FOG     WCI  19
DULUTH         CLOUDY    24  21  88 SE8       29.94F FOG     WCI  15
RED WING       CLOUDY    27  25  93 S14G21    30.01F FOG     WCI  15
REDWOOD FALLS  CLOUDY    33  30  88 SE22      29.85F FOG     WCI  21
MANKATO        CLOUDY    30  25  80 S18G25    29.91F WCI  18
WORTHINGTON    CLOUDY    30  28  93 S17G24    29.81F WCI  18
FAIRMONT       CLOUDY    30  27  86 SE23      29.86F WCI  17
$$

...SOUTHWEST WISCONSIN...


CITY           SKY/WX    TMP DP  RH WIND       PRES   REMARKS
LA CROSSE      CLOUDY    29  23  78 S16       30.09F HAZE    WCI  17
PRAIRIE DU CHI CLOUDY    29  25  86 SE9       30.11F FOG     WCI  20
BOSCOBEL       CLOUDY    29  24  82 VRB5      30.14F HAZE    WCI  24
LONE ROCK      CLOUDY    27  23  85 S12       30.16F FOG     WCI  17
PLATTEVILLE    CLOUDY    28  25  88 SE17      30.13F WCI  16
FORT MC COY    CLOUDY    27  23  85 S15       30.11S FOG     WCI  15
CAMP DOUGLAS   CLOUDY    27  27 100 SE13G20   30.11F WCI  16
VIROQUA        CLOUDY    26  26 100 S12G21    30.07F WCI  15
WIS DELLS      CLOUDY    25  22  90 S17G23    30.14F FOG     WCI  11
$$

...ELSEWHERE IN WISCONSIN...


CITY           SKY/WX    TMP DP  RH WIND       PRES   REMARKS
MILWAUKEE      PTSUNNY   28  20  71 S12       30.25R WCI  18
MADISON        CLOUDY    26  20  77 S10       30.19S WCI  16
GREEN BAY      CLOUDY    26  20  77 S9        30.21F WCI  17
EAU CLAIRE     CLOUDY    26  22  84 SE16      30.04F FOG     WCI  14
BLACK RVR FLS  CLOUDY    28  23  81 SE7       30.08F HAZE    WCI  21
MEDFORD        CLOUDY    23  21  93 SE10G17   30.06S FOG     WCI  12
WAUSAU         CLOUDY    25  20  81 SE13      30.09F WCI  14
WIS RAPIDS     CLOUDY    24  19  81 S13       30.13F WCI  12
MARSHFIELD     CLOUDY    24  21  88 SE17      30.08F FOG     WCI  11
RICE LAKE      CLOUDY    25  22  89 SE15      30.03F FOG     WCI  13
$$

...NORTHEAST IOWA...


CITY           SKY/WX    TMP DP  RH WIND       PRES   REMARKS
DECORAH        FOG       27  27 100 SE18G24   30.04F VSB 1/2 WCI  13
MASON CITY     FOG       29  28  96 SE18G30   29.96F VSB 1/2 WCI  16
CHARLES CITY   FOG       28  28 100 SE20      30.00F VSB<1/4 WCI  15
OELWEIN        CLOUDY    28  28 100 SE21G29   30.03F FOG     WCI  15
$$

...ELSEWHERE IN IOWA...


CITY           SKY/WX    TMP DP  RH WIND       PRES   REMARKS
DES MOINES     PTSUNNY   33  28  81 SE17      29.94F FOG     WCI  22
IOWA CITY      MOSUNNY   30  25  81 SE13      30.10F WCI  20
FORT DODGE     CLOUDY    30  27  86 SE12G20   29.91F WCI  21
$$

...NORTHERN ILLINOIS...


CITY           SKY/WX    TMP DP  RH WIND       PRES   REMARKS
CHICAGO-OHARE  PTSUNNY   27  13  55 S12       30.26S WCI  17
CHICAGO-MIDWAY PTSUNNY   29  16  58 S8        30.27S WCI  21
MOLINE         MOSUNNY   28  19  69 SE9G18    30.15F WCI  19
ROCKFORD       PTSUNNY   27  19  72 S16       30.24F WCI  15
PEORIA         MOSUNNY   32  22  66 S14       30.22F WCI  22
$$

NOTE: "FAIR" INDICATES FEW OR NO CLOUDS BELOW 12,000 FEET WITH NO
SIGNIFICANT WEATHER AND/OR OBSTRUCTIONS TO VISIBILITY. WIND
SPEEDS ARE IN MILES-PER-HOUR.



USA.gov is the U.S. government's official web portal to all federal, state and local government web resources and services.